Location: Seasalter
(51.3333°N, 1.0167°E)
Time: 05:28:44
(UTC+00:00)

Cosmos 2082 Rocket - Pass Details

Date: 26 September 2023
Orbit: 834 x 852 km, 71.0° (Epoch: 29 November)

Event Time Altitude Azimuth Distance (km) Brightness Sun altitude
Exits shadow 01:01:31 19° 77° (ENE) 1,938 4.3 -37.4°
Drops below altitude 10° 01:04:00 10° 54° (NE) 2,490 5.2 -37.2°
Sets 01:06:59 0° 39° (NE) 3,430 6.3 -37.0°
